Date String (YYYY-MM-DD hh:mm:ss) UTC,Instrument flags,absolute air pressure of the measurement (hPa),sample flow rate (lpm),inlet stack bypass flow (lpm),air temperature of the measurement (°C),ambient temperature measured by the external sensor (°C),aerosol sample conditioner tube jacket temperature (°C),OPC LED temperature (°C),internal box temperature (°C),relative humidity of the measurement (%),span deviation,mass concentration of particles derived from Lorenz-Mie calculation of OPC scattering (μg/m³),mass concentration of particles derived from Lorenz-Mie calculation of OPC scattering (μg/m³),mass concentration of particles derived from Lorenz-Mie calculation of OPC scattering (μg/m³)
DateTimeUTC,F1_M11,P_M11,Q1_M11,Q2_M11,T1_M11,T2_M11,T3_M11,T4_M11,T5_M11,U1_M11,ZSPAN_M11,X0_M11,X2_M11,X1_M11
2024-01-25 00:00:00,SystemResetWarning,0826.4,5.00,000.00,024.3,023.7,000.0,032.6,025.7,14.7,0001.7,0010.94,0006.54,0006.00
2024-01-25 00:01:00,SystemResetWarning,0826.4,5.01,000.00,024.3,023.7,000.0,032.6,025.6,14.7,0001.0,0010.60,0006.50,0005.97
2024-01-25 00:02:00,SystemResetWarning,0826.4,5.00,000.00,024.3,023.7,000.0,032.6,025.6,14.7,0001.6,0010.40,0006.44,0005.94
2024-01-25 00:03:00,SystemResetWarning,0826.5,5.00,000.00,024.3,023.7,000.0,032.6,025.7,14.7,0003.0,0010.34,0006.39,0005.91
2024-01-25 00:04:00,SystemResetWarning,0826.5,4.99,000.00,024.4,023.7,000.0,032.6,025.7,14.7,0003.1,0010.87,0006.35,0005.88
2024-01-25 00:05:00,SystemResetWarning,0826.6,4.99,000.00,024.4,023.7,000.0,032.6,025.7,14.7,0003.3,0011.44,0006.30,0005.85
2024-01-25 00:06:00,SystemResetWarning,0826.6,5.00,000.00,024.4,023.7,000.0,032.6,025.7,14.7,0003.4,0011.84,0006.24,0005.82
2024-01-25 00:07:00,SystemResetWarning,0826.6,5.00,000.00,024.4,023.7,000.0,032.6,025.7,14.7,0003.0,0012.16,0006.23,0005.79
2024-01-25 00:08:00,SystemResetWarning,0826.6,5.00,000.00,024.4,023.7,000.0,032.6,025.7,14.7,0003.1,0012.47,0006.21,0005.76
2024-01-25 00:09:00,SystemResetWarning,0826.6,5.00,000.00,024.4,023.7,000.0,032.7,025.8,14.7,0003.2,0012.52,0006.20,0005.75
2024-01-25 00:10:00,SystemResetWarning,0826.6,5.01,000.00,024.4,023.7,000.0,032.7,025.8,14.7,0003.2,0012.28,0006.19,0005.73
2024-01-25 00:11:00,SystemResetWarning,0826.6,5.00,000.00,024.4,023.7,000.0,032.7,025.8,14.7,0003.3,0012.33,0006.15,0005.71
2024-01-25 00:12:00,SystemResetWarning,0826.6,5.00,000.00,024.4,023.7,000.0,032.7,025.9,14.7,0003.4,0012.61,0006.15,0005.68
2024-01-25 00:13:00,SystemResetWarning,0826.6,5.00,000.00,024.4,023.7,000.0,032.7,025.8,14.7,0003.2,0014.63,0006.13,0005.67
2024-01-25 00:14:00,SystemResetWarning,0826.6,5.00,000.00,024.4,023.7,000.0,032.7,025.8,14.7,0002.6,0014.66,0006.11,0005.66
2024-01-25 00:15:00,SystemResetWarning,0826.6,4.99,000.00,024.4,023.7,000.0,032.7,025.8,14.7,0002.4,0014.05,0006.10,0005.66
2024-01-25 00:16:00,SystemResetWarning,0826.6,5.00,000.00,024.4,023.7,000.0,032.7,025.9,14.7,0002.2,0013.47,0006.07,0005.66
2024-01-25 00:17:00,SystemResetWarning,0826.6,5.00,000.00,024.5,023.7,000.0,032.7,025.9,14.7,0002.3,0012.61,0006.05,0005.65
2024-01-25 00:18:00,SystemResetWarning,0826.6,5.00,000.00,024.5,023.7,000.0,032.7,025.9,14.7,0002.6,0012.30,0006.04,0005.64
2024-01-25 00:19:00,SystemResetWarning,0826.6,5.01,000.00,024.5,023.7,000.0,032.7,025.9,14.7,0002.4,0012.06,0006.05,0005.64
2024-01-25 00:20:00,SystemResetWarning,0826.6,5.00,000.00,024.5,023.7,000.0,032.7,025.9,14.7,0002.5,0011.66,0006.04,0005.64
2024-01-25 00:21:00,SystemResetWarning,0826.6,5.00,000.00,024.5,023.7,000.0,032.7,025.9,14.7,0002.8,0011.62,0006.03,0005.63
2024-01-25 00:22:00,SystemResetWarning,0826.6,5.00,000.00,024.5,023.7,000.0,032.7,025.9,14.7,0002.5,0011.57,0006.04,0005.64
2024-01-25 00:23:00,SystemResetWarning,0826.6,4.99,000.00,024.5,023.7,000.0,032.8,025.9,14.7,0002.5,0011.50,0006.03,0005.63
2024-01-25 00:24:00,SystemResetWarning,0826.6,5.00,000.00,024.5,023.7,000.0,032.7,025.9,14.7,0002.6,0009.91,0006.01,0005.62
2024-01-25 00:25:00,SystemResetWarning,0826.6,5.00,000.00,024.5,023.7,000.0,032.8,025.9,14.7,0002.5,0010.19,0006.02,0005.60
2024-01-25 00:26:00,SystemResetWarning,0826.6,5.00,000.00,024.5,023.7,000.0,032.8,025.9,14.7,0002.9,0010.53,0006.03,0005.59
2024-01-25 00:27:00,SystemResetWarning,0826.6,5.00,000.00,024.5,023.7,000.0,032.8,025.9,14.7,0003.0,0010.56,0006.02,0005.57
2024-01-25 00:28:00,SystemResetWarning,0826.6,5.00,000.00,024.5,023.6,000.0,032.8,025.9,14.7,0002.8,0011.07,0006.02,0005.56
2024-01-25 00:29:00,SystemResetWarning,0826.6,5.00,000.00,024.5,023.6,000.0,032.8,025.9,14.7,0002.7,0011.23,0006.03,0005.54
2024-01-25 00:30:00,SystemResetWarning,0826.6,5.00,000.00,024.5,023.6,000.0,032.8,025.9,14.7,0002.6,0011.25,0006.02,0005.53
2024-01-25 00:31:00,SystemResetWarning,0826.7,5.00,000.00,024.5,023.6,000.0,032.8,025.9,14.7,0002.4,0011.33,0006.03,0005.51
2024-01-25 00:32:00,SystemResetWarning,0826.8,5.00,000.00,024.5,023.6,000.0,032.8,025.9,14.7,0001.8,0011.30,0006.00,0005.49
2024-01-25 00:33:00,SystemResetWarning,0826.8,5.00,000.00,024.5,023.6,000.0,032.8,025.9,14.7,0000.9,0011.92,0005.96,0005.48
2024-01-25 00:34:00,SystemResetWarning,0826.8,5.00,000.00,024.5,023.6,000.0,032.8,025.9,14.7,0000.6,0012.12,0005.93,0005.47
2024-01-25 00:35:00,SystemResetWarning,0826.8,4.99,000.00,024.5,023.5,000.0,032.8,025.9,14.7,0000.7,0012.37,0005.94,0005.47
2024-01-25 00:36:00,SystemResetWarning,0826.8,5.00,000.00,024.5,023.5,000.0,032.8,025.9,14.7,0000.4,0011.82,0005.98,0005.49
2024-01-25 00:37:00,SystemResetWarning,0826.8,5.00,000.00,024.5,023.5,000.0,032.8,025.8,14.7,0000.2,0011.59,0005.98,0005.50
2024-01-25 00:38:00,SystemResetWarning,0826.8,5.00,000.00,024.5,023.5,000.0,032.8,025.8,14.7,0000.2,0011.73,0005.98,0005.51
2024-01-25 00:39:00,SystemResetWarning,0826.8,5.00,000.00,024.5,023.5,000.0,032.8,025.8,14.7,0000.0,0010.96,0005.96,0005.51
2024-01-25 00:40:00,SystemResetWarning,0826.8,5.00,000.00,024.5,023.5,000.0,032.8,025.8,14.7,0000.0,0010.88,0005.96,0005.51
2024-01-25 00:41:00,SystemResetWarning,0826.8,5.00,000.00,024.5,023.4,000.0,032.8,025.8,14.7,0000.0,0010.75,0005.93,0005.50
2024-01-25 00:42:00,SystemResetWarning,0826.8,5.01,000.00,024.5,023.4,000.0,032.8,025.8,14.7,0000.3,0010.46,0005.88,0005.50
2024-01-25 00:43:00,SystemResetWarning,0826.8,5.01,000.00,024.5,023.4,000.0,032.8,025.8,14.7,0000.9,0010.46,0005.89,0005.50
2024-01-25 00:44:00,SystemResetWarning,0826.8,5.00,000.00,024.5,023.4,000.0,032.8,025.7,14.8,0001.5,0009.82,0005.94,0005.49
2024-01-25 00:45:00,SystemResetWarning,0826.8,4.99,000.00,024.4,023.4,000.0,032.8,025.7,14.8,0000.0,0009.64,0005.96,0005.48
2024-01-25 00:46:00,SystemResetWarning,0826.9,4.99,000.00,024.4,023.4,000.0,032.8,025.7,14.8,0000.0,0009.18,0005.96,0005.48
2024-01-25 00:47:00,SystemResetWarning,0826.9,5.00,000.00,024.4,023.4,000.0,032.8,025.7,14.8,0000.0,0009.04,0005.91,0005.47
2024-01-25 00:48:00,SystemResetWarning,0826.9,5.01,000.00,024.4,023.4,000.0,032.8,025.7,14.8,0000.0,0009.09,0005.92,0005.49
2024-01-25 00:49:00,SystemResetWarning,0826.8,5.00,000.00,024.4,023.4,000.0,032.8,025.7,14.8,0000.0,0009.22,0005.99,0005.52
2024-01-25 00:50:00,SystemResetWarning,0826.8,5.00,000.00,024.4,023.3,000.0,032.8,025.7,14.8,0000.0,0009.70,0006.02,0005.55
2024-01-25 00:51:00,SystemResetWarning,0826.8,5.00,000.00,024.4,023.3,000.0,032.8,025.7,14.8,0000.0,0010.13,0006.04,0005.58
2024-01-25 00:52:00,SystemResetWarning,0826.8,5.00,000.00,024.4,023.3,000.0,032.8,025.7,14.8,0000.0,0010.44,0006.08,0005.60
2024-01-25 00:53:00,SystemResetWarning,0826.8,5.00,000.00,024.4,023.3,000.0,032.8,025.7,14.8,0000.0,0010.61,0006.13,0005.63
2024-01-25 00:54:00,SystemResetWarning,0826.8,4.99,000.00,024.4,023.3,000.0,032.8,025.7,14.8,0000.0,0011.43,0006.15,0005.65
2024-01-25 00:55:00,SystemResetWarning,0826.8,5.00,000.00,024.4,023.3,000.0,032.8,025.7,14.8,0000.0,0011.43,0006.13,0005.66
2024-01-25 00:56:00,SystemResetWarning,0826.8,5.00,000.00,024.4,023.3,000.0,032.7,025.7,14.8,0000.0,0011.45,0006.13,0005.68
2024-01-25 00:57:00,SystemResetWarning,0826.8,5.00,000.00,024.4,023.3,000.0,032.7,025.7,14.8,0000.0,0011.41,0006.14,0005.70
2024-01-25 00:58:00,SystemResetWarning,0826.8,5.00,000.00,024.4,023.3,000.0,032.7,025.7,14.8,0000.0,0011.47,0006.14,0005.70
2024-01-25 00:59:00,SystemResetWarning,0826.8,5.00,000.00,024.4,023.3,000.0,032.7,025.7,14.8,0000.0,0011.55,0006.15,0005.69
